Fairacres, NM

12:39 PM MDT on August 30, 2016 (GMT -0600)
Las Cruces International

Weather History for KLRU - March, 2014

Change the Weather History Date:

Wednesday, March 26, 2014

  Actual Average Record
Temperature  
Mean Temperature 57 °F -  
Max Temperature 72 °F 68 °F 82 °F (2004)
Min Temperature 42 °F 42 °F 35 °F (1997)
Degree Days  
Heating Degree Days 8    
Growing Degree Days 7 (Base 50)    
Moisture  
Dew Point 31 °F    
Average Humidity 50    
Maximum Humidity 93    
Minimum Humidity 10    
Precipitation  
Precipitation 0.00 in - - ()
Sea Level Pressure  
Sea Level Pressure 29.87 in    
Wind  
Wind Speed 11 mph (WSW)    
Max Wind Speed 33 mph    
Max Gust Speed 41 mph    
Visibility 10 miles    
Events      
Averages and records for this station are not official NWS values.
T = Trace of Precipitation, MM = Missing Value Source: NWS Daily Summary

Daily Weather History Graph

Daily Weather History Graph

Search for Another Location

Airport or City:

Trip Planner

Search our weather history database for the weather conditions in past years. The results will help you decide how hot, cold, wet, or windy it might be!

Date:

Astronomy

Mar. 26, 2014 Rise Set
Actual Time 7:03 AM MDT 7:23 PM MDT
Civil Twilight 6:39 AM MDT 7:47 PM MDT
Nautical Twilight 6:10 AM MDT 8:16 PM MDT
Astronomical Twilight 5:41 AM MDT 8:45 PM MDT
Moon 3:59 AM MDT (3/26) 3:18 PM MDT (3/26)
Length of Visible Light 13h 08m
Length of Day
12h 19m
Waning Crescent, 21% of the Moon is Illuminated
Mar 26
Waning Crescent
Mar 30
New
Apr 7
First Quarter
Apr 15
Full
Apr 22
Last Quarter

Hourly Weather History & Observations

Time (MDT) Temp. Windchill Dew Point Humidity Pressure Visibility Wind Dir Wind Speed Gust Speed Precip Events Conditions
12:15 AM 50.9 °F - 46.0 °F 83% 29.95 in 10.0 mi ENE 6.9 mph - N/A   Overcast
12:35 AM 49.3 °F - 46.8 °F 91% 29.95 in 10.0 mi NE 6.9 mph - N/A   Overcast
12:55 AM 48.7 °F - 45.9 °F 90% 29.96 in 10.0 mi NNE 6.9 mph - N/A   Scattered Clouds
1:15 AM 49.1 °F - 44.8 °F 85% 29.95 in 10.0 mi NNE 4.6 mph - N/A   Mostly Cloudy
1:35 AM 48.4 °F - 44.8 °F 87% 29.95 in 10.0 mi NNE 4.6 mph - N/A   Scattered Clouds
1:55 AM 48.2 °F - 44.1 °F 86% 29.94 in 10.0 mi NE 5.8 mph - N/A   Clear
2:15 AM 48.7 °F - 43.2 °F 81% 29.94 in 10.0 mi NE 4.6 mph - N/A   Clear
2:35 AM 47.1 °F - 43.9 °F 88% 29.94 in 10.0 mi North 6.9 mph - N/A   Clear
2:55 AM 46.6 °F - 43.9 °F 90% 29.93 in 10.0 mi North 4.6 mph - N/A   Clear
3:15 AM 46.6 °F - 43.3 °F 88% 29.92 in 10.0 mi Calm Calm - N/A   Clear
3:35 AM 45.5 °F - 43.7 °F 93% 29.91 in 10.0 mi Calm Calm - N/A   Scattered Clouds
3:55 AM 45.7 °F - 43.2 °F 91% 29.90 in 10.0 mi Calm Calm - N/A   Scattered Clouds
4:15 AM 44.2 °F 41.0 °F 41.9 °F 91% 29.90 in 10.0 mi NW 5.8 mph - N/A   Clear
4:35 AM 44.6 °F - 42.4 °F 92% 29.90 in 10.0 mi Calm Calm - N/A   Scattered Clouds
4:55 AM 44.6 °F - 42.8 °F 93% 29.90 in 10.0 mi Calm Calm - N/A   Mostly Cloudy
5:15 AM 44.6 °F 42.2 °F 42.8 °F 93% 29.90 in 10.0 mi West 4.6 mph - N/A   Mostly Cloudy
5:35 AM 44.6 °F 42.2 °F 42.8 °F 93% 29.90 in 10.0 mi SSW 4.6 mph - N/A   Scattered Clouds
5:55 AM 45.3 °F 42.3 °F 42.8 °F 91% 29.90 in 10.0 mi South 5.8 mph - N/A   Clear
6:15 AM 46.0 °F 42.5 °F 42.4 °F 87% 29.90 in 10.0 mi South 6.9 mph - N/A   Clear
6:35 AM 45.9 °F 41.7 °F 42.4 °F 88% 29.91 in 10.0 mi South 8.1 mph - N/A   Clear
6:55 AM 43.9 °F 40.5 °F 41.2 °F 90% 29.92 in 10.0 mi West 5.8 mph - N/A   Clear
7:15 AM 42.3 °F 37.9 °F 40.5 °F 93% 29.93 in 10.0 mi West 6.9 mph - N/A   Clear
7:35 AM 43.2 °F 39.7 °F 41.4 °F 93% 29.94 in 10.0 mi WSW 5.8 mph - N/A   Clear
7:55 AM 44.6 °F 43.1 °F 42.6 °F 93% 29.95 in 10.0 mi West 3.5 mph - N/A   Clear
8:15 AM 46.6 °F - 43.2 °F 88% 29.96 in 10.0 mi West 6.9 mph - N/A   Clear
8:35 AM 48.7 °F - 44.4 °F 85% 29.95 in 10.0 mi West 6.9 mph - N/A   Clear
8:55 AM 50.4 °F - 45.0 °F 82% 29.96 in 10.0 mi West 5.8 mph - N/A   Clear
9:15 AM 51.6 °F - 45.1 °F 79% 29.96 in 10.0 mi West 9.2 mph - N/A   Clear
9:35 AM 53.1 °F - 46.0 °F 77% 29.96 in 10.0 mi WSW 9.2 mph - N/A   Clear
9:55 AM 54.5 °F - 46.6 °F 75% 29.97 in 10.0 mi SW 9.2 mph - N/A   Clear
10:15 AM 55.9 °F - 47.1 °F 72% 29.96 in 10.0 mi SW 11.5 mph - N/A   Clear
10:35 AM 56.8 °F - 47.3 °F 70% 29.96 in 10.0 mi SW 11.5 mph - N/A   Clear
10:55 AM 59.2 °F - 46.6 °F 63% 29.96 in 10.0 mi SW 9.2 mph - N/A   Clear
11:15 AM 60.1 °F - 45.0 °F 57% 29.96 in 10.0 mi WSW 11.5 mph 17.3 mph N/A   Clear
11:35 AM 61.0 °F - 42.6 °F 51% 29.95 in 10.0 mi WSW 15.0 mph - N/A   Clear
11:55 AM 62.8 °F - 38.7 °F 41% 29.95 in 10.0 mi WSW 16.1 mph 21.9 mph N/A   Clear
12:15 PM 63.7 °F - 36.3 °F 36% 29.94 in 10.0 mi WSW 13.8 mph 20.7 mph N/A   Clear
12:35 PM 64.6 °F - 34.9 °F 33% 29.93 in 10.0 mi WSW 13.8 mph - N/A   Clear
12:55 PM 65.7 °F - 32.5 °F 29% 29.92 in 10.0 mi WSW 18.4 mph 24.2 mph N/A   Clear
1:15 PM 66.2 °F - 31.8 °F 28% 29.91 in 10.0 mi WSW 19.6 mph 26.5 mph N/A   Clear
1:35 PM 67.3 °F - 27.9 °F 23% 29.89 in 10.0 mi WSW 17.3 mph 26.5 mph N/A   Clear
1:55 PM 68.0 °F - 23.9 °F 19% 29.87 in 10.0 mi SW 17.3 mph 27.6 mph N/A   Clear
2:15 PM 69.1 °F - 20.7 °F 16% 29.87 in 10.0 mi WSW 21.9 mph 31.1 mph N/A   Clear
2:35 PM 69.6 °F - 20.3 °F 15% 29.86 in 10.0 mi SW 19.6 mph 27.6 mph N/A   Clear
2:55 PM 70.5 °F - 18.3 °F 14% 29.84 in 10.0 mi SW 20.7 mph 27.6 mph N/A   Clear
3:15 PM 71.1 °F - 17.6 °F 13% 29.83 in 10.0 mi WSW 21.9 mph 32.2 mph N/A   Clear
3:35 PM 72.0 °F - 14.9 °F 11% 29.82 in 10.0 mi WSW 23.0 mph 33.4 mph N/A   Clear
3:55 PM 71.6 °F - 14.4 °F 11% 29.81 in 10.0 mi SW 20.7 mph 32.2 mph N/A   Clear
4:15 PM 72.1 °F - 14.5 °F 11% 29.80 in 10.0 mi WSW 28.8 mph 36.8 mph N/A   Clear
4:35 PM 72.3 °F - 14.4 °F 11% 29.80 in 10.0 mi WSW 25.3 mph 41.4 mph N/A   Clear
4:55 PM 72.5 °F - 14.2 °F 11% 29.79 in 10.0 mi SW 28.8 mph 32.2 mph N/A   Clear
5:15 PM 72.7 °F - 13.1 °F 10% 29.78 in 10.0 mi WSW 25.3 mph 35.7 mph N/A   Clear
5:35 PM 72.5 °F - 15.1 °F 11% 29.78 in 10.0 mi WSW 33.4 mph 40.3 mph N/A   Clear
5:55 PM 71.8 °F - 15.1 °F 11% 29.77 in 10.0 mi WSW 27.6 mph 41.4 mph N/A   Clear
6:15 PM 71.2 °F - 15.3 °F 12% 29.76 in 10.0 mi WSW 32.2 mph 36.8 mph N/A   Clear
6:35 PM 70.9 °F - 15.8 °F 12% 29.75 in 10.0 mi WSW 29.9 mph 41.4 mph N/A   Clear
6:55 PM 69.6 °F - 16.0 °F 13% 29.75 in 10.0 mi WSW 27.6 mph 38.0 mph N/A   Clear
7:15 PM 68.9 °F - 16.7 °F 14% 29.76 in 10.0 mi WSW 23.0 mph 29.9 mph N/A   Clear
7:35 PM 68.0 °F - 17.6 °F 15% 29.75 in 10.0 mi SW 19.6 mph 29.9 mph N/A   Clear
7:55 PM 66.9 °F - 18.3 °F 16% 29.75 in 10.0 mi WSW 23.0 mph 29.9 mph N/A   Clear
8:15 PM 66.6 °F - 18.5 °F 16% 29.73 in 10.0 mi SW 29.9 mph 34.5 mph N/A   Clear
8:35 PM 65.8 °F - 18.0 °F 16% 29.73 in 10.0 mi SW 27.6 mph 33.4 mph N/A   Clear
8:55 PM 65.1 °F - 17.8 °F 16% 29.74 in 10.0 mi SW 25.3 mph 33.4 mph N/A   Clear
9:15 PM 65.1 °F - 17.6 °F 16% 29.75 in 10.0 mi SW 25.3 mph 35.7 mph N/A   Clear
9:35 PM 64.8 °F - 16.9 °F 16% 29.75 in 10.0 mi WSW 25.3 mph 33.4 mph N/A   Clear
9:55 PM 64.4 °F - 16.7 °F 16% 29.76 in 10.0 mi WSW 24.2 mph 33.4 mph N/A   Clear
10:15 PM 63.7 °F - 16.7 °F 16% 29.77 in 10.0 mi WSW 28.8 mph 35.7 mph N/A   Clear
10:35 PM 64.4 °F - 16.2 °F 16% 29.76 in 10.0 mi WSW 32.2 mph 38.0 mph N/A   Clear
10:55 PM 64.0 °F - 16.0 °F 16% 29.76 in 10.0 mi WSW 32.2 mph 40.3 mph N/A   Clear
11:15 PM 64.2 °F - 15.8 °F 15% 29.76 in 10.0 mi WSW 29.9 mph 38.0 mph N/A   Clear
11:35 PM 63.5 °F - 15.8 °F 16% 29.78 in 10.0 mi WSW 27.6 mph 35.7 mph N/A   Clear
11:55 PM 62.8 °F - 15.6 °F 16% 29.78 in 10.0 mi WSW 27.6 mph 36.8 mph N/A   Clear